This is the latest recevied weather packets stored in our database for station/object N6GPM. If no packets are shown the sender has not sent any weather packets the latest 10 day(s).
| Time | Temp. | Humidity | Pressure | Rain* | Wind** | Luminosity | Snow |
|---|---|---|---|---|---|---|---|
| 1787777756 | 38.89° C | 20% | 1017.2 hPa | 0 mm | - | 950 W/m² | - |
| 1787777454 | 38.89° C | 20% | 1017.3 hPa | 0 mm | - | 957 W/m² | - |
| 1787777148 | 38.89° C | 19% | 1017.2 hPa | 0 mm | - | 963 W/m² | - |
| 1787776847 | 38.89° C | 21% | 1017.3 hPa | 0 mm | - | 969 W/m² | - |
| 1787776546 | 38.89° C | 21% | 1017.4 hPa | 0 mm | - | 975 W/m² | - |
| 1787776244 | 38.89° C | 21% | 1017.4 hPa | 0 mm | - | 979 W/m² | - |
| 1787775944 | 38.89° C | 20% | 1017.5 hPa | 0 mm | - | 984 W/m² | - |
| 1787775638 | 38.89° C | 19% | 1017.7 hPa | 0 mm | - | 988 W/m² | - |
| 1787775336 | 38.89° C | 19% | 1017.7 hPa | 0 mm | - | 988 W/m² | - |
| 1787775031 | 38.33° C | 20% | 1017.8 hPa | 0 mm | - | 994 W/m² | - |
| 1787774730 | 38.33° C | 20% | 1017.8 hPa | 0 mm | - | 996 W/m² | - |
| 1787774425 | 38.33° C | 19% | 1018 hPa | 0 mm | - | 999 W/m² | - |
| 1787774119 | 38.33° C | 20% | 1017.9 hPa | 0 mm | - | 998 W/m² | - |
| 1787773818 | 38.33° C | 19% | 1017.9 hPa | 0 mm | - | 1000 W/m² | - |
| 1787773517 | 38.33° C | 19% | 1017.8 hPa | 0 mm | - | 1000 W/m² | - |
| 1787773213 | 37.78° C | 22% | 1017.9 hPa | 0 mm | - | 1002 W/m² | - |
| 1787772908 | 38.33° C | 20% | 1018.2 hPa | 0 mm | - | 1000 W/m² | - |
| 1787772603 | 38.33° C | 21% | 1018 hPa | 0 mm | - | 998 W/m² | - |
| 1787772296 | 38.33° C | 21% | 1018 hPa | 0 mm | - | 997 W/m² | - |
| 1787771995 | 38.33° C | 21% | 1018 hPa | 0 mm | - | 993 W/m² | - |
| 1787771691 | 37.78° C | 23% | 1018.2 hPa | 0 mm | - | 990 W/m² | - |
| 1787771390 | 37.78° C | 22% | 1018.3 hPa | 0 mm | - | 986 W/m² | - |
| 1787771084 | 37.78° C | 21% | 1018.2 hPa | 0 mm | - | 985 W/m² | - |
| 1787770779 | 38.33° C | 22% | 1018.3 hPa | 0 mm | - | 977 W/m² | - |
| 1787770478 | 37.78° C | 23% | 1018.5 hPa | 0 mm | - | 973 W/m² | - |
* Rain latest hour (hover to see other rain measurements)
** Current wind speed in m/s (hover to see current wind gust speed)